Location: ?
(35.2180°N, 139.6392°E)
Time: 10:32:28
(UTC+00:00)

Cosmos 2227 Rocket - Pass Details

Date: 05 August 2024
Orbit: 839 x 843 km, 71.0° (Epoch: 14 September)

Event Time Altitude Azimuth Distance (km) Brightness Sun altitude
Rises 13:01:05 0° 353° (N) 3,397 6.3 -32.2°
Reaches altitude 10° 13:04:09 10° 9° (N) 2,460 5.2 -32.6°
Enters shadow 13:07:23 20° 43° (NE) 1,840 4.1 -32.9°
